Location: Aalen
(48.8330°N, 10.1000°E)
Time: 09:40:52
(UTC+02:00)

Transit 2A - Pass Details

Date: 04 August 2021
Orbit: 594 x 964 km, 66.7° (Epoch: 24 September)

Event Time Altitude Azimuth Distance (km) Brightness Sun altitude
Rises 08:57:49 0° 264° (W) 2,896 8.5 27.9°
Reaches altitude 10° 09:00:34 10° 282° (WNW) 2,036 7.8 28.4°
Maximum altitude 09:03:56 20° 329° (NNW) 1,551 7.4 28.9°
Drops below altitude 10° 09:07:32 10° 16° (NNE) 2,186 8.6 29.5°
Sets 09:10:37 0° 34° (NNE) 3,185 9.5 30.0°
